[[{"header":{"parameterUnit":"m.s-1","parameterCategory":1,"la1":30.2991,"la2":30.254,"lo1":-89.0895,"lo2":-89.0444,"dy":0.0017,"dx":0.0017,"nx":28,"ny":28,"refTime":"2023-08-26T03:00:00:Z","depth":0,"parameterNumber":2,"parameterNumberName":"U-component_of_WINDS"},"data":[0,0,0,0,0,0,0,0,0,0,0,0,0,0,0,0,0,0,0,0,0,0,0,0,0,0,0,0,0,0,0,0,0,0,0,0,0,0,0,0,0,0,0,0,0,0,0,0,0,0,0,0,0,0,0,0,0,0,1.1472,1.1472,0,1.1484,1.1484,1.1484,1.1456,1.1455,1.1454,1.1453,1.1466,1.1467,1.1468,0,0,0,0,0,0,0,0,0,0,0,0,0,1.1428,1.1429,1.1472,1.1472,1.1473,1.1484,1.1484,1.1484,1.1456,1.1455,1.1454,1.1453,1.1466,1.1467,1.1468,0,0,0,0,0,0,0,0,0,0,0,0,0,1.1444,1.1429,1.1472,1.146,1.1459,1.1484,1.1484,1.1484,1.1456,1.1455,1.1453,1.1452,1.1465,1.1467,1.1469,1.1507,0,0,1.1474,1.1475,0,0,0,0,0,0,0,0,1.1443,1.1446,1.1461,1.1461,1.146,1.1467,1.1473,1.1492,1.1456,1.1457,1.1453,1.1452,1.1467,1.1469,1.1474,1.1507,1.1508,1.1474,1.1475,1.1476,1.1476,0,0,0,0,0,0,0,1.1442,1.1445,1.1477,1.1462,1.1461,1.1454,1.1455,1.1477,1.147,1.1457,1.1455,1.1457,1.1467,1.1472,1.1474,1.1508,1.1474,1.1476,1.1477,1.1477,1.1575,1.1577,0,0,0,0,0,0,1.1442,1.1444,1.1477,1.1477,1.1448,1.1456,1.1457,1.1466,1.1469,1.1469,1.1458,1.1455,1.147,1.1472,1.1475,1.1521,1.1476,1.1478,1.1479,1.1574,1.1576,1.1577,0,0,0,0,0,0,1.1442,1.1446,1.1476,1.146,1.1464,1.1458,1.1469,1.1467,1.1473,1.147,1.1469,1.1465,1.1469,1.1472,1.1499,1.1521,1.1478,1.148,1.1572,1.1575,1.1577,1.1613,0,0,0,0,0,0,1.144,1.1445,1.1459,1.1461,1.1465,1.15,1.147,1.1468,1.1476,1.1473,1.1476,1.1476,1.1468,1.1497,1.1501,1.1523,1.1481,1.157,1.1573,1.1576,1.161,1.1616,1.1622,0,0,0,0,0,1.1439,1.1468,1.146,1.1464,1.1482,1.1501,1.1504,1.1494,1.1478,1.1492,1.1491,1.1476,1.1518,1.15,1.1504,1.1527,1.1569,1.1572,1.1576,1.1607,1.1615,1.1622,0,0,0,0,0,0,1.1469,1.1468,1.1459,1.149,1.1496,1.1496,1.1514,1.1502,1.1513,1.151,1.1498,1.1499,1.153,1.1531,1.1511,1.1565,1.1541,1.1545,1.1563,1.1571,1.1576,1.1576,1.1483,0,0,0,0,0,1.1479,1.1495,1.1494,1.1521,1.1525,1.1519,1.1527,1.152,1.1526,1.1528,1.1529,1.1535,1.155,1.156,1.1574,1.161,1.1612,1.1628,1.1634,1.1639,1.1643,1.1664,1.1672,1.1589,1.1589,1.1589,0,0,1.1501,1.1502,1.1513,1.1527,1.1531,1.1549,1.1521,1.154,1.1553,1.1531,1.1557,1.1558,1.1565,1.1598,1.1612,1.16,1.1666,1.1643,1.1647,1.1649,1.1669,1.1677,1.1684,1.1591,1.1591,1.159,0,0,1.1549,1.1551,1.1575,1.158,1.1586,1.1582,1.1588,1.1591,1.1591,1.1617,1.1601,1.1617,1.1643,1.1649,1.1655,1.1709,1.1696,1.1713,1.1745,1.1765,1.1772,1.1778,1.1798,1.1806,1.1717,1.1718,1.1718,0,1.1575,1.1599,1.1589,1.161,1.1617,1.1598,1.1623,1.1629,1.1639,1.1646,1.1632,1.1665,1.1668,1.1703,1.1716,1.1721,1.1729,1.1713,1.1772,1.1778,1.1783,1.1802,1.181,1.172,1.1719,1.1719,1.1719,0,1.1632,1.1649,1.1668,1.168,1.1689,1.1712,1.1706,1.1718,1.171,1.1708,1.1736,1.174,1.1755,1.1762,1.1754,1.1797,1.1789,1.1774,1.1749,1.1793,1.1811,1.1818,1.1723,1.1722,1.1721,1.1721,0,0,1.1698,1.1704,1.1712,1.1718,1.1724,1.1738,1.1761,1.1776,1.1786,1.1795,1.1815,1.1838,1.1825,1.1832,1.1825,1.1843,1.1888,1.1826,1.1826,1.1839,1.1936,1.1948,1.1957,1.1879,1.188,1.1881,1.1936,0,1.1747,1.1785,1.1778,1.1816,1.1833,1.1817,1.1837,1.1844,1.1843,1.1859,1.1858,1.1876,1.1856,1.1861,1.1878,1.1878,1.1907,1.1874,1.1899,1.19,1.1898,1.1966,1.1978,1.203,1.1943,1.1944,1.1945,0,1.1808,1.1819,1.186,1.1866,1.1873,1.1891,1.1905,1.1919,1.1928,1.1926,1.1936,1.1926,1.195,1.1925,1.196,1.1937,1.1947,1.1949,1.1951,1.1953,1.1925,1.1972,1.2046,1.2054,1.1956,1.1955,1.1954,0,1.1854,1.188,1.1908,1.1913,1.192,1.1934,1.1937,1.1944,1.1954,1.1967,1.1974,1.1989,1.1997,1.201,1.2005,1.1987,1.2041,1.2015,1.2042,1.2042,1.2054,1.2053,1.2132,1.2059,1.2059,1.2059,1.2058,0,1.1909,1.1935,1.1929,1.1946,1.1975,1.1967,1.1996,1.1998,1.2004,1.2023,1.2009,1.2027,1.2019,1.2036,1.2033,1.2063,1.2066,1.2067,1.2066,1.2069,1.2069,1.2075,1.2072,1.2061,1.206,1.206,1.2059,0,1.1966,1.1962,1.1992,1.1997,1.1999,1.202,1.2025,1.2042,1.2041,1.2064,1.2069,1.2068,1.2088,1.2085,1.2107,1.2105,1.2143,1.2137,1.214,1.2139,1.2166,1.2164,1.2252,1.2264,1.2182,1.2183,1.2184,0,1.2002,1.2021,1.2029,1.204,1.2045,1.2063,1.2074,1.2067,1.2078,1.2091,1.2107,1.2126,1.2141,1.2174,1.2176,1.2193,1.2188,1.2218,1.2191,1.2194,1.219,1.2189,1.2192,1.2223,1.2224,1.2225,1.2226,0,1.2066,1.2064,1.208,1.2095,1.2109,1.212,1.2131,1.2141,1.2136,1.215,1.217,1.2182,1.2205,1.2225,1.2242,1.2247,1.2236,1.2234,1.2242,1.2245,1.2247,1.2248,1.2156,1.2232,1.2232,1.2231,1.2231,1.223,1.2114,1.2132,1.214,1.2159,1.2166,1.2177,1.2194,1.2196,1.2213,1.2231,1.2226,1.225,1.226,1.2281,1.2288,1.2308,1.2297,1.2307,1.231,1.2313,1.2317,1.2243,1.2311,1.231,1.231,1.231,1.231,0,1.218,1.2185,1.2202,1.2218,1.2233,1.2221,1.2233,1.2246,1.2268,1.2278,1.2293,1.2318,1.2337,1.2341,1.236,1.2375,1.2371,1.2381,1.238,1.2382,1.2325,1.2317,1.2384,1.2384,1.2384,1.2384,1.2384,1.2384,1.2215,1.2245,1.2244,1.2278,1.2283,1.2306,1.2314,1.2325,1.2333,1.2361,1.2378,1.238,1.2388,1.2408,1.2426,1.2427,1.2435,1.2447,1.2446,1.2393,1.2385,1.2378,1.2371,1.2449,1.2449,1.2502,1.2502,1.2503]},{"header":{"parameterUnit":"m.s-1","parameterCategory":1,"la1":30.2991,"la2":30.254,"lo1":-89.0895,"lo2":-89.0444,"dy":0.0017,"dx":0.0017,"nx":28,"ny":28,"refTime":"2023-08-26T03:00:00:Z","depth":0,"parameterNumber":3,"parameterNumberName":"V-component_of_WINDS"},"data":[0,0,0,0,0,0,0,0,0,0,0,0,0,0,0,0,0,0,0,0,0,0,0,0,0,0,0,0,0,0,0,0,0,0,0,0,0,0,0,0,0,0,0,0,0,0,0,0,0,0,0,0,0,0,0,0,0,0,-1.9666,-1.9667,0,-1.973,-1.9731,-1.9731,-1.9727,-1.9726,-1.9725,-1.9724,-1.9789,-1.9791,-1.9794,0,0,0,0,0,0,0,0,0,0,0,0,0,-1.9541,-1.9544,-1.9666,-1.9667,-1.9667,-1.973,-1.9731,-1.9732,-1.9727,-1.9726,-1.9725,-1.9724,-1.9788,-1.9791,-1.9794,0,0,0,0,0,0,0,0,0,0,0,0,0,-1.9599,-1.9544,-1.9666,-1.9673,-1.9674,-1.973,-1.9731,-1.9732,-1.9727,-1.9726,-1.9724,-1.9723,-1.9787,-1.979,-1.9794,-1.9847,0,0,-1.9806,-1.9808,0,0,0,0,0,0,0,0,-1.9596,-1.9604,-1.9671,-1.9672,-1.9674,-1.9719,-1.971,-1.977,-1.9728,-1.9707,-1.9724,-1.9722,-1.9766,-1.9772,-1.9787,-1.985,-1.9852,-1.9807,-1.9809,-1.9811,-1.9812,0,0,0,0,0,0,0,-1.9592,-1.9601,-1.9691,-1.9672,-1.9674,-1.9673,-1.968,-1.9722,-1.9744,-1.9709,-1.9709,-1.9716,-1.9767,-1.9783,-1.9788,-1.9853,-1.9806,-1.981,-1.9812,-1.9814,-1.9966,-1.9968,0,0,0,0,0,0,-1.9586,-1.9598,-1.9689,-1.9693,-1.9631,-1.9677,-1.9684,-1.9706,-1.9743,-1.9748,-1.9717,-1.9716,-1.9777,-1.9784,-1.9791,-1.9857,-1.9811,-1.9814,-1.9816,-1.9965,-1.9967,-1.9968,0,0,0,0,0,0,-1.9584,-1.9595,-1.9687,-1.9646,-1.9657,-1.968,-1.9705,-1.9708,-1.9724,-1.975,-1.9754,-1.973,-1.9776,-1.9785,-1.9834,-1.9859,-1.9816,-1.9819,-1.9963,-1.9965,-1.9968,-1.9989,0,0,0,0,0,0,-1.958,-1.9594,-1.9613,-1.9646,-1.9659,-1.9728,-1.9706,-1.971,-1.9731,-1.973,-1.9763,-1.9767,-1.9776,-1.9828,-1.9838,-1.9864,-1.9823,-1.996,-1.9964,-1.9967,-1.9986,-1.9992,-1.9997,0,0,0,0,0,-1.9576,-1.9616,-1.9614,-1.9625,-1.9684,-1.973,-1.9737,-1.9747,-1.9733,-1.9754,-1.9771,-1.9766,-1.9855,-1.9833,-1.9844,-1.9872,-1.9959,-1.9963,-1.9966,-1.9984,-1.9991,-1.9997,0,0,0,0,0,0,-1.9584,-1.962,-1.9619,-1.967,-1.9697,-1.9729,-1.9755,-1.9754,-1.9785,-1.9782,-1.9793,-1.9801,-1.985,-1.9865,-1.984,-1.9926,-1.9905,-1.9911,-1.9915,-1.9922,-1.9927,-1.9923,-1.9826,0,0,0,0,0,-1.9592,-1.9626,-1.9655,-1.9698,-1.9712,-1.9731,-1.9751,-1.9757,-1.9785,-1.9796,-1.9816,-1.9844,-1.9878,-1.99,-1.9933,-1.9988,-1.9997,-2.0013,-2.0018,-2.0023,-2.0028,-2.0062,-2.007,-1.9981,-1.9981,-1.9981,0,0,-1.9609,-1.9632,-1.9653,-1.97,-1.9722,-1.9758,-1.974,-1.9778,-1.9805,-1.9801,-1.9849,-1.9866,-1.9897,-1.995,-1.9974,-1.9964,-2.0055,-2.0028,-2.0031,-2.0034,-2.0067,-2.0075,-2.0083,-1.9984,-1.9983,-1.9983,0,0,-1.9658,-1.9678,-1.9718,-1.974,-1.9773,-1.9787,-1.9796,-1.9829,-1.984,-1.9888,-1.9888,-1.992,-1.9978,-2.0001,-2.0021,-2.0082,-2.008,-2.0093,-2.0122,-2.0154,-2.0161,-2.0168,-2.0192,-2.0201,-2.0098,-2.0098,-2.0098,0,-1.9674,-1.9727,-1.9738,-1.9777,-1.9799,-1.9799,-1.984,-1.9861,-1.9903,-1.9919,-1.9907,-1.9983,-2.0004,-2.0064,-2.0079,-2.0094,-2.0107,-2.0089,-2.0159,-2.0166,-2.0172,-2.0196,-2.0204,-2.0099,-2.0099,-2.0099,-2.0099,0,-1.9747,-1.9785,-1.9813,-1.9855,-1.988,-1.992,-1.9938,-1.9962,-1.9966,-1.9981,-2.0032,-2.0057,-2.0097,-2.0111,-2.0115,-2.0173,-2.0166,-2.0157,-2.0136,-2.0182,-2.0204,-2.0213,-2.0102,-2.0101,-2.0101,-2.01,0,0,-1.9802,-1.9852,-1.9863,-1.9883,-1.9921,-1.9951,-1.9991,-2.0031,-2.0053,-2.0083,-2.0119,-2.017,-2.0162,-2.0185,-2.0191,-2.0219,-2.027,-2.0207,-2.0208,-2.022,-2.0339,-2.0348,-2.0358,-2.0269,-2.027,-2.0272,-2.0338,0,-1.9857,-1.993,-1.9942,-2.0006,-2.0042,-2.0044,-2.008,-2.0108,-2.0123,-2.0157,-2.0174,-2.0211,-2.0197,-2.0211,-2.0239,-2.0258,-2.0295,-2.0253,-2.0304,-2.0305,-2.0298,-2.0369,-2.0377,-2.0438,-2.0346,-2.0348,-2.0349,0,-1.993,-1.9964,-2.0032,-2.0069,-2.0084,-2.0116,-2.0156,-2.0187,-2.0219,-2.0229,-2.0256,-2.026,-2.0304,-2.028,-2.0342,-2.0314,-2.0335,-2.0348,-2.0351,-2.0357,-2.0331,-2.0379,-2.0457,-2.0468,-2.0362,-2.0361,-2.036,0,-1.9967,-2.0029,-2.0078,-2.0096,-2.0139,-2.0162,-2.0181,-2.0212,-2.0236,-2.0271,-2.0287,-2.0325,-2.0347,-2.0377,-2.0392,-2.0373,-2.0454,-2.0431,-2.0465,-2.0465,-2.0482,-2.0481,-2.0567,-2.0493,-2.0493,-2.0493,-2.0493,0,-2.0027,-2.007,-2.0096,-2.0127,-2.0175,-2.0189,-2.0237,-2.0255,-2.0284,-2.0319,-2.0322,-2.0355,-2.0372,-2.0408,-2.042,-2.0471,-2.048,-2.049,-2.0493,-2.0491,-2.049,-2.0506,-2.0503,-2.0495,-2.0495,-2.0494,-2.0494,0,-2.0076,-2.0095,-2.015,-2.0188,-2.0198,-2.0232,-2.0265,-2.0295,-2.0311,-2.0356,-2.0368,-2.0393,-2.0436,-2.0454,-2.0506,-2.0514,-2.0574,-2.0573,-2.0564,-2.0565,-2.0599,-2.0596,-2.0699,-2.0714,-2.0628,-2.0629,-2.063,0,-2.0114,-2.0148,-2.0189,-2.0214,-2.0234,-2.0273,-2.0298,-2.0314,-2.0341,-2.0382,-2.0409,-2.0452,-2.0488,-2.0557,-2.058,-2.0621,-2.0622,-2.0655,-2.0628,-2.0626,-2.0626,-2.0624,-2.0629,-2.0661,-2.0662,-2.0662,-2.0663,0,-2.0182,-2.019,-2.0227,-2.0269,-2.03,-2.0332,-2.0365,-2.0385,-2.0406,-2.0436,-2.0481,-2.0508,-2.0563,-2.0607,-2.065,-2.067,-2.0671,-2.0671,-2.0682,-2.0681,-2.0675,-2.0681,-2.058,-2.0669,-2.0668,-2.0668,-2.0668,-2.0667,-2.0228,-2.0259,-2.0294,-2.0336,-2.0363,-2.0393,-2.0425,-2.0447,-2.0484,-2.0531,-2.0538,-2.0587,-2.0621,-2.0679,-2.0701,-2.074,-2.0732,-2.0746,-2.075,-2.0754,-2.0758,-2.0668,-2.0748,-2.0748,-2.0747,-2.0747,-2.0747,0,-2.0297,-2.0321,-2.0359,-2.0406,-2.044,-2.0438,-2.0474,-2.0503,-2.0546,-2.0578,-2.0614,-2.0668,-2.0711,-2.0739,-2.0783,-2.0809,-2.0811,-2.082,-2.0819,-2.0825,-2.0761,-2.0749,-2.0818,-2.0818,-2.0818,-2.0818,-2.0818,-2.0818,-2.0338,-2.0391,-2.0404,-2.0471,-2.0494,-2.0543,-2.0565,-2.0594,-2.062,-2.068,-2.0716,-2.0735,-2.0766,-2.0813,-2.0854,-2.0861,-2.0878,-2.0888,-2.0895,-2.0836,-2.0829,-2.0822,-2.081,-2.0891,-2.0891,-2.0956,-2.0956,-2.0957]}]]